Wetterdaten: Woche 30.11.15 - 06.12.15 (KW49)
Datum Zeit Temperatur Luftfeuchte Luftdruck Niederschlag Windrichtung Sonnenschein Solar Wind
30.11.2015 00:00 7,2 C 87 % 1023,5 hPa 0,0 l/m SW 0,00 h 0 W/m 28,4 km/h (4 Bft)
30.11.2015 01:00 7,5 C 86 % 1023,4 hPa 0,0 l/m W-SW 0,00 h 0 W/m 32,9 km/h (5 Bft)
30.11.2015 02:00 7,4 C 87 % 1023,3 hPa 0,0 l/m W-SW 0,00 h 0 W/m 36,2 km/h (5 Bft)
30.11.2015 03:00 7,2 C 89 % 1023,2 hPa 0,2 l/m W 0,00 h 0 W/m 37,0 km/h (5 Bft)
30.11.2015 04:00 7,5 C 87 % 1023,4 hPa 0,0 l/m W-SW 0,00 h 0 W/m 33,7 km/h (5 Bft)
30.11.2015 05:00 7,5 C 86 % 1023,3 hPa 0,0 l/m W-SW 0,00 h 0 W/m 39,7 km/h (6 Bft)
30.11.2015 06:00 7,6 C 84 % 1023,8 hPa 0,0 l/m W-SW 0,00 h 0 W/m 34,2 km/h (5 Bft)
30.11.2015 07:00 7,6 C 84 % 1024,2 hPa 0,0 l/m W-SW 0,00 h 0 W/m 33,7 km/h (5 Bft)
30.11.2015 08:00 7,8 C 83 % 1024,8 hPa 0,0 l/m W 0,00 h 14 W/m 36,1 km/h (5 Bft)
30.11.2015 09:00 8,0 C 82 % 1025,4 hPa 0,0 l/m SW 0,00 h 31 W/m 31,5 km/h (5 Bft)
30.11.2015 10:00 8,2 C 82 % 1025,7 hPa 0,0 l/m W-SW 0,00 h 32 W/m 35,3 km/h (5 Bft)
30.11.2015 11:00 8,0 C 85 % 1025,6 hPa 0,0 l/m W-SW 0,00 h 35 W/m 32,7 km/h (5 Bft)
30.11.2015 12:00 8,2 C 84 % 1024,9 hPa 0,0 l/m W-SW 0,00 h 64 W/m 31,5 km/h (5 Bft)
30.11.2015 13:00 8,3 C 84 % 1024,3 hPa 0,0 l/m W 0,08 h 108 W/m 34,9 km/h (5 Bft)
30.11.2015 14:00 8,8 C 81 % 1024,0 hPa 0,0 l/m W 0,00 h 92 W/m 35,7 km/h (5 Bft)
30.11.2015 15:00 7,9 C 89 % 1023,9 hPa 0,0 l/m W-SW 0,00 h 29 W/m 31,4 km/h (5 Bft)
30.11.2015 16:00 7,6 C 90 % 1023,3 hPa 0,0 l/m W-SW 0,00 h 8 W/m 36,2 km/h (5 Bft)
30.11.2015 17:00 8,0 C 85 % 1022,9 hPa 0,0 l/m W-SW 0,00 h 0 W/m 38,4 km/h (5 Bft)
30.11.2015 18:00 8,3 C 81 % 1022,7 hPa 0,0 l/m W-SW 0,00 h 0 W/m 33,4 km/h (5 Bft)
30.11.2015 19:00 8,4 C 79 % 1022,6 hPa 0,0 l/m W-SW 0,00 h 0 W/m 32,7 km/h (5 Bft)
30.11.2015 20:00 8,6 C 78 % 1022,1 hPa 0,0 l/m W-SW 0,00 h 0 W/m 40,6 km/h (6 Bft)
30.11.2015 21:00 8,6 C 79 % 1022,3 hPa 0,0 l/m W 0,00 h 0 W/m 40,8 km/h (6 Bft)
30.11.2015 22:00 8,3 C 83 % 1023,0 hPa 0,0 l/m W-SW 0,00 h 0 W/m 39,7 km/h (6 Bft)
30.11.2015 23:00 7,9 C 85 % 1022,8 hPa 0,0 l/m W-SW 0,00 h 0 W/m 45,5 km/h (6 Bft)
01.12.2015 00:00 7,8 C 85 % 1023,0 hPa 0,0 l/m W-SW 0,00 h 0 W/m 45,5 km/h (6 Bft)
01.12.2015 01:00 8,1 C 83 % 1022,9 hPa 0,0 l/m W-SW 0,00 h 0 W/m 45,2 km/h (6 Bft)
01.12.2015 02:00 8,3 C 82 % 1023,5 hPa 0,0 l/m W-SW 0,00 h 0 W/m 42,0 km/h (6 Bft)
01.12.2015 03:00 8,1 C 84 % 1024,1 hPa 0,0 l/m W 0,00 h 0 W/m 34,2 km/h (5 Bft)
01.12.2015 04:00 7,9 C 86 % 1024,6 hPa 0,0 l/m W-SW 0,00 h 0 W/m 34,1 km/h (5 Bft)
01.12.2015 05:00 7,9 C 87 % 1025,0 hPa 0,0 l/m W-SW 0,00 h 0 W/m 34,1 km/h (5 Bft)
01.12.2015 06:00 7,5 C 90 % 1025,4 hPa 0,0 l/m W-SW 0,00 h 0 W/m 31,3 km/h (5 Bft)
01.12.2015 07:00 7,4 C 90 % 1025,8 hPa 0,0 l/m W-SW 0,00 h 0 W/m 33,9 km/h (5 Bft)
01.12.2015 08:00 7,5 C 89 % 1026,6 hPa 0,2 l/m W-SW 0,00 h 7 W/m 34,6 km/h (5 Bft)
01.12.2015 09:00 7,4 C 90 % 1027,3 hPa 0,2 l/m W-SW 0,00 h 16 W/m 31,3 km/h (5 Bft)
01.12.2015 10:00 7,5 C 90 % 1027,7 hPa 0,4 l/m W 0,00 h 25 W/m 31,5 km/h (5 Bft)
01.12.2015 11:00 7,9 C 88 % 1027,8 hPa 0,0 l/m SW 0,00 h 47 W/m 28,4 km/h (4 Bft)
01.12.2015 12:00 8,5 C 87 % 1027,7 hPa 0,0 l/m W-SW 0,00 h 111 W/m 33,1 km/h (5 Bft)
01.12.2015 13:00 8,8 C 86 % 1027,6 hPa 0,0 l/m W-SW 0,00 h 107 W/m 30,2 km/h (5 Bft)
01.12.2015 14:00 8,8 C 86 % 1027,9 hPa 0,0 l/m W-SW 0,00 h 85 W/m 27,1 km/h (4 Bft)
01.12.2015 15:00 8,9 C 85 % 1028,2 hPa 0,0 l/m W-SW 0,00 h 34 W/m 27,6 km/h (4 Bft)
01.12.2015 16:00 8,9 C 84 % 1028,4 hPa 0,0 l/m W-SW 0,00 h 10 W/m 23,8 km/h (4 Bft)
01.12.2015 17:00 8,7 C 84 % 1028,8 hPa 0,0 l/m W-SW 0,00 h 0 W/m 22,8 km/h (4 Bft)
01.12.2015 18:00 8,7 C 83 % 1029,2 hPa 0,0 l/m SW 0,00 h 0 W/m 26,0 km/h (4 Bft)
01.12.2015 19:00 8,6 C 83 % 1029,5 hPa 0,0 l/m SW 0,00 h 0 W/m 19,8 km/h (4 Bft)
01.12.2015 20:00 8,3 C 85 % 1029,6 hPa 0,0 l/m SW 0,00 h 0 W/m 11,2 km/h (2 Bft)
01.12.2015 21:00 8,0 C 85 % 1029,5 hPa 0,0 l/m SW 0,00 h 0 W/m 10,6 km/h (2 Bft)
01.12.2015 22:00 7,1 C 86 % 1029,4 hPa 0,0 l/m SW 0,00 h 0 W/m 9,4 km/h (2 Bft)
01.12.2015 23:00 6,1 C 88 % 1029,5 hPa 0,0 l/m W-SW 0,00 h 0 W/m 6,2 km/h (2 Bft)
02.12.2015 00:00 5,7 C 89 % 1029,6 hPa 0,0 l/m W-SW 0,00 h 0 W/m 5,2 km/h (1 Bft)
02.12.2015 01:00 4,5 C 87 % 1029,7 hPa 0,0 l/m N 0,00 h 0 W/m 0,0 km/h (0 Bft)
02.12.2015 02:00 3,3 C 89 % 1029,4 hPa 0,0 l/m N 0,00 h 0 W/m 0,0 km/h (0 Bft)
02.12.2015 03:00 2,4 C 90 % 1029,1 hPa 0,0 l/m N 0,00 h 0 W/m 0,0 km/h (0 Bft)
02.12.2015 04:00 1,6 C 91 % 1029,0 hPa 0,0 l/m N 0,00 h 0 W/m 0,0 km/h (0 Bft)
02.12.2015 05:00 1,2 C 91 % 1029,1 hPa 0,0 l/m N 0,00 h 0 W/m 0,0 km/h (0 Bft)
02.12.2015 06:00 1,4 C 94 % 1029,1 hPa 0,0 l/m N 0,00 h 0 W/m 0,0 km/h (0 Bft)
02.12.2015 07:00 2,0 C 95 % 1029,3 hPa 0,0 l/m N 0,00 h 0 W/m 0,0 km/h (0 Bft)
02.12.2015 08:00 2,2 C 96 % 1029,6 hPa 0,0 l/m N 0,00 h 16 W/m 0,0 km/h (0 Bft)
02.12.2015 09:00 3,0 C 97 % 1029,6 hPa 0,0 l/m N 0,00 h 49 W/m 0,0 km/h (0 Bft)
02.12.2015 10:00 4,2 C 98 % 1029,9 hPa 0,0 l/m N 0,00 h 76 W/m 0,0 km/h (0 Bft)
02.12.2015 11:00 5,5 C 98 % 1029,9 hPa 0,0 l/m N 0,00 h 115 W/m 0,1 km/h (0 Bft)
02.12.2015 12:00 6,6 C 97 % 1029,5 hPa 0,0 l/m W-SW 0,00 h 92 W/m 3,7 km/h (1 Bft)
02.12.2015 13:00 7,2 C 92 % 1029,1 hPa 0,0 l/m W-SW 0,00 h 90 W/m 2,1 km/h (1 Bft)
02.12.2015 14:00 7,6 C 87 % 1029,0 hPa 0,0 l/m SW 0,00 h 72 W/m 1,7 km/h (1 Bft)
02.12.2015 15:00 7,5 C 85 % 1029,0 hPa 0,0 l/m N 0,00 h 42 W/m 0,9 km/h (0 Bft)
02.12.2015 16:00 6,6 C 84 % 1028,8 hPa 0,0 l/m N 0,00 h 9 W/m 0,0 km/h (0 Bft)
02.12.2015 17:00 4,8 C 87 % 1028,7 hPa 0,0 l/m N 0,00 h 0 W/m 0,0 km/h (0 Bft)
02.12.2015 18:00 3,5 C 89 % 1029,1 hPa 0,0 l/m N 0,00 h 0 W/m 0,0 km/h (0 Bft)
02.12.2015 19:00 2,5 C 90 % 1029,2 hPa 0,0 l/m N 0,00 h 0 W/m 0,0 km/h (0 Bft)
02.12.2015 20:00 1,5 C 90 % 1029,3 hPa 0,0 l/m N 0,00 h 0 W/m 0,0 km/h (0 Bft)
02.12.2015 21:00 1,4 C 93 % 1029,6 hPa 0,0 l/m N 0,00 h 0 W/m 0,0 km/h (0 Bft)
02.12.2015 22:00 1,7 C 94 % 1029,5 hPa 0,0 l/m N 0,00 h 0 W/m 0,0 km/h (0 Bft)
02.12.2015 23:00 1,9 C 95 % 1029,8 hPa 0,0 l/m N 0,00 h 0 W/m 0,0 km/h (0 Bft)
03.12.2015 00:00 2,0 C 96 % 1029,9 hPa 0,0 l/m N 0,00 h 0 W/m 0,0 km/h (0 Bft)
03.12.2015 01:00 2,2 C 96 % 1030,0 hPa 0,0 l/m N 0,00 h 0 W/m 0,1 km/h (0 Bft)
03.12.2015 02:00 2,5 C 96 % 1030,2 hPa 0,0 l/m N 0,00 h 0 W/m 0,4 km/h (0 Bft)
03.12.2015 03:00 2,6 C 97 % 1030,3 hPa 0,0 l/m N 0,00 h 0 W/m 0,0 km/h (0 Bft)
03.12.2015 04:00 2,8 C 97 % 1030,4 hPa 0,0 l/m N 0,00 h 0 W/m 0,5 km/h (0 Bft)
03.12.2015 05:00 3,0 C 97 % 1030,2 hPa 0,0 l/m SW 0,00 h 0 W/m 2,0 km/h (1 Bft)
03.12.2015 06:00 3,2 C 97 % 1030,1 hPa 0,0 l/m SW 0,00 h 0 W/m 2,8 km/h (1 Bft)
03.12.2015 07:00 3,2 C 97 % 1030,5 hPa 0,0 l/m SW 0,00 h 0 W/m 4,9 km/h (1 Bft)
03.12.2015 08:00 3,2 C 97 % 1030,8 hPa 0,0 l/m SW 0,00 h 11 W/m 1,5 km/h (1 Bft)
03.12.2015 09:00 3,2 C 97 % 1030,8 hPa 0,0 l/m SW 0,00 h 27 W/m 2,7 km/h (1 Bft)
03.12.2015 10:00 3,3 C 97 % 1031,0 hPa 0,0 l/m SW 0,00 h 53 W/m 0,8 km/h (0 Bft)
03.12.2015 11:00 3,6 C 96 % 1030,5 hPa 0,0 l/m SW 0,00 h 85 W/m 3,8 km/h (1 Bft)
03.12.2015 12:00 3,9 C 95 % 1030,0 hPa 0,0 l/m S-SW 0,00 h 94 W/m 6,4 km/h (2 Bft)
03.12.2015 13:00 4,2 C 93 % 1029,9 hPa 0,0 l/m S-SW 0,00 h 85 W/m 2,3 km/h (1 Bft)
03.12.2015 14:00 4,3 C 91 % 1029,5 hPa 0,0 l/m S-SW 0,00 h 79 W/m 4,8 km/h (1 Bft)
03.12.2015 15:00 4,0 C 90 % 1029,3 hPa 0,0 l/m S 0,08 h 48 W/m 6,7 km/h (2 Bft)
03.12.2015 16:00 3,3 C 91 % 1029,6 hPa 0,0 l/m S-SW 0,00 h 8 W/m 4,3 km/h (1 Bft)
03.12.2015 17:00 2,6 C 93 % 1029,6 hPa 0,0 l/m S-SW 0,00 h 0 W/m 2,1 km/h (1 Bft)
03.12.2015 18:00 2,1 C 94 % 1029,9 hPa 0,0 l/m SW 0,00 h 0 W/m 7,0 km/h (2 Bft)
03.12.2015 19:00 1,7 C 95 % 1030,3 hPa 0,0 l/m SW 0,00 h 0 W/m 12,0 km/h (2 Bft)
03.12.2015 20:00 1,3 C 96 % 1029,5 hPa 0,0 l/m SW 0,00 h 0 W/m 16,0 km/h (3 Bft)
03.12.2015 21:00 1,3 C 97 % 1029,0 hPa 0,0 l/m SW 0,00 h 0 W/m 12,5 km/h (3 Bft)
03.12.2015 22:00 1,2 C 97 % 1028,4 hPa 0,0 l/m SW 0,00 h 0 W/m 7,5 km/h (2 Bft)
03.12.2015 23:00 1,0 C 97 % 1028,1 hPa 0,0 l/m SW 0,00 h 0 W/m 7,4 km/h (2 Bft)
04.12.2015 00:00 0,4 C 97 % 1028,3 hPa 0,0 l/m W-SW 0,00 h 0 W/m 8,3 km/h (2 Bft)
04.12.2015 01:00 0,1 C 98 % 1028,3 hPa 0,0 l/m SW 0,00 h 0 W/m 12,9 km/h (3 Bft)
04.12.2015 02:00 0,5 C 98 % 1028,7 hPa 0,0 l/m SW 0,00 h 0 W/m 18,4 km/h (3 Bft)
04.12.2015 03:00 0,7 C 98 % 1029,1 hPa 0,0 l/m SW 0,00 h 0 W/m 17,2 km/h (3 Bft)
04.12.2015 04:00 0,5 C 98 % 1029,3 hPa 0,0 l/m S-SW 0,00 h 0 W/m 15,0 km/h (3 Bft)
04.12.2015 05:00 0,2 C 98 % 1029,6 hPa 0,0 l/m S-SW 0,00 h 0 W/m 9,7 km/h (2 Bft)
04.12.2015 06:00 -0,1 C 98 % 1030,2 hPa 0,0 l/m S 0,00 h 0 W/m 11,6 km/h (2 Bft)
04.12.2015 07:00 -0,2 C 98 % 1030,9 hPa 0,0 l/m S 0,00 h 6 W/m 15,4 km/h (3 Bft)
04.12.2015 08:00 -0,2 C 98 % 1031,5 hPa 0,0 l/m S-SO 0,00 h 27 W/m 11,3 km/h (2 Bft)
04.12.2015 09:00 0,4 C 99 % 1032,2 hPa 0,0 l/m S-SW 0,00 h 76 W/m 7,9 km/h (2 Bft)
04.12.2015 10:00 1,3 C 99 % 1032,7 hPa 0,0 l/m S-SO 0,00 h 85 W/m 9,1 km/h (2 Bft)
04.12.2015 11:00 2,2 C 99 % 1032,8 hPa 0,0 l/m SO 0,08 h 109 W/m 4,9 km/h (1 Bft)
04.12.2015 12:00 3,3 C 99 % 1033,0 hPa 0,0 l/m SO 0,00 h 54 W/m 7,9 km/h (2 Bft)
04.12.2015 13:00 3,6 C 98 % 1033,5 hPa 0,2 l/m S 0,00 h 37 W/m 7,0 km/h (2 Bft)
04.12.2015 14:00 3,5 C 98 % 1033,5 hPa 0,0 l/m S-SO 0,00 h 17 W/m 10,9 km/h (2 Bft)
04.12.2015 15:00 3,3 C 97 % 1033,7 hPa 0,2 l/m S-SO 0,00 h 10 W/m 10,3 km/h (2 Bft)
04.12.2015 16:00 3,5 C 97 % 1034,4 hPa 0,0 l/m S-SW 0,00 h 5 W/m 8,5 km/h (2 Bft)
04.12.2015 17:00 3,4 C 97 % 1034,7 hPa 0,0 l/m S-SW 0,00 h 0 W/m 6,8 km/h (2 Bft)
04.12.2015 18:00 3,6 C 97 % 1035,3 hPa 0,0 l/m S 0,00 h 0 W/m 7,2 km/h (2 Bft)
04.12.2015 19:00 3,7 C 97 % 1035,6 hPa 0,0 l/m S 0,00 h 0 W/m 8,2 km/h (2 Bft)
04.12.2015 20:00 3,7 C 97 % 1035,7 hPa 0,0 l/m S-SW 0,00 h 0 W/m 2,4 km/h (1 Bft)
04.12.2015 21:00 3,9 C 97 % 1035,8 hPa 0,0 l/m N 0,00 h 0 W/m 0,0 km/h (0 Bft)
04.12.2015 22:00 4,0 C 98 % 1035,7 hPa 0,0 l/m N 0,00 h 0 W/m 0,0 km/h (0 Bft)
04.12.2015 23:00 4,2 C 98 % 1035,6 hPa 0,0 l/m N 0,00 h 0 W/m 0,0 km/h (0 Bft)
05.12.2015 00:00 4,4 C 98 % 1035,2 hPa 0,0 l/m S-SW 0,00 h 0 W/m 1,3 km/h (1 Bft)
05.12.2015 01:00 4,7 C 98 % 1034,5 hPa 0,0 l/m N 0,00 h 0 W/m 0,0 km/h (0 Bft)
05.12.2015 02:00 4,5 C 97 % 1034,3 hPa 0,0 l/m W-SW 0,00 h 0 W/m 0,5 km/h (0 Bft)
05.12.2015 03:00 4,0 C 97 % 1033,8 hPa 0,0 l/m W-SW 0,00 h 0 W/m 1,2 km/h (1 Bft)
05.12.2015 04:00 3,0 C 97 % 1033,5 hPa 0,0 l/m N 0,00 h 0 W/m 0,4 km/h (0 Bft)
05.12.2015 05:00 2,3 C 97 % 1033,5 hPa 0,0 l/m N 0,00 h 0 W/m 0,0 km/h (0 Bft)
05.12.2015 06:00 2,5 C 97 % 1033,7 hPa 0,0 l/m N 0,00 h 0 W/m 0,5 km/h (0 Bft)
05.12.2015 07:00 2,9 C 97 % 1033,6 hPa 0,0 l/m W-SW 0,00 h 5 W/m 0,3 km/h (0 Bft)
05.12.2015 08:00 2,6 C 97 % 1033,5 hPa 0,0 l/m N 0,00 h 23 W/m 0,0 km/h (0 Bft)
05.12.2015 09:00 2,2 C 97 % 1033,4 hPa 0,0 l/m SW 0,00 h 47 W/m 4,4 km/h (1 Bft)
05.12.2015 10:00 3,3 C 98 % 1033,7 hPa 0,0 l/m SW 0,08 h 109 W/m 2,3 km/h (1 Bft)
05.12.2015 11:00 4,4 C 99 % 1033,1 hPa 0,0 l/m SW 0,00 h 82 W/m 1,9 km/h (1 Bft)
05.12.2015 12:00 4,5 C 98 % 1032,2 hPa 0,0 l/m SW 0,00 h 98 W/m 3,1 km/h (1 Bft)
05.12.2015 13:00 5,3 C 99 % 1031,1 hPa 0,0 l/m W-SW 0,08 h 124 W/m 2,7 km/h (1 Bft)
05.12.2015 14:00 6,0 C 99 % 1030,7 hPa 0,0 l/m W-SW 0,00 h 98 W/m 3,7 km/h (1 Bft)
05.12.2015 15:00 5,9 C 99 % 1030,7 hPa 0,0 l/m S-SW 0,42 h 64 W/m 11,6 km/h (2 Bft)
05.12.2015 16:00 4,5 C 98 % 1031,3 hPa 0,0 l/m SW 0,00 h 10 W/m 13,3 km/h (3 Bft)
05.12.2015 17:00 4,1 C 98 % 1031,8 hPa 0,0 l/m S-SW 0,00 h 0 W/m 11,4 km/h (2 Bft)
05.12.2015 18:00 4,0 C 98 % 1031,6 hPa 0,0 l/m SW 0,00 h 0 W/m 14,0 km/h (3 Bft)
05.12.2015 19:00 3,7 C 99 % 1031,3 hPa 0,0 l/m S-SW 0,00 h 0 W/m 14,5 km/h (3 Bft)
05.12.2015 20:00 3,4 C 99 % 1031,0 hPa 0,0 l/m S-SW 0,00 h 0 W/m 11,0 km/h (2 Bft)
05.12.2015 21:00 3,4 C 99 % 1030,6 hPa 0,0 l/m S-SW 0,00 h 0 W/m 7,0 km/h (2 Bft)
05.12.2015 22:00 3,2 C 99 % 1030,5 hPa 0,0 l/m S-SW 0,00 h 0 W/m 2,3 km/h (1 Bft)
05.12.2015 23:00 2,9 C 99 % 1030,3 hPa 0,0 l/m S-SW 0,00 h 0 W/m 4,4 km/h (1 Bft)
06.12.2015 00:00 2,4 C 99 % 1030,2 hPa 0,0 l/m SW 0,00 h 0 W/m 6,0 km/h (2 Bft)
06.12.2015 01:00 2,5 C 99 % 1030,2 hPa 0,0 l/m SW 0,00 h 0 W/m 11,8 km/h (2 Bft)
06.12.2015 02:00 2,6 C 99 % 1030,2 hPa 0,0 l/m S-SW 0,00 h 0 W/m 12,1 km/h (2 Bft)
06.12.2015 03:00 2,9 C 99 % 1029,9 hPa 0,0 l/m S-SW 0,00 h 0 W/m 14,5 km/h (3 Bft)
06.12.2015 04:00 3,0 C 99 % 1029,6 hPa 0,0 l/m S-SW 0,00 h 0 W/m 11,7 km/h (2 Bft)
06.12.2015 05:00 2,9 C 99 % 1029,5 hPa 0,0 l/m SW 0,00 h 0 W/m 14,0 km/h (3 Bft)
06.12.2015 06:00 2,9 C 99 % 1029,8 hPa 0,0 l/m SW 0,00 h 0 W/m 6,7 km/h (2 Bft)
06.12.2015 07:00 2,9 C 99 % 1030,1 hPa 0,0 l/m SW 0,00 h 0 W/m 8,2 km/h (2 Bft)
06.12.2015 08:00 3,0 C 99 % 1030,5 hPa 0,0 l/m SW 0,00 h 13 W/m 16,1 km/h (3 Bft)
06.12.2015 09:00 3,2 C 100 % 1030,9 hPa 0,0 l/m SW 0,00 h 49 W/m 18,4 km/h (3 Bft)
06.12.2015 10:00 3,8 C 100 % 1031,3 hPa 0,0 l/m SW 0,33 h 133 W/m 18,2 km/h (3 Bft)
06.12.2015 11:00 4,6 C 100 % 1030,8 hPa 0,0 l/m S-SW 0,67 h 213 W/m 16,0 km/h (3 Bft)
06.12.2015 12:00 4,8 C 100 % 1030,4 hPa 0,0 l/m S-SW 0,00 h 134 W/m 18,8 km/h (3 Bft)
06.12.2015 13:00 5,6 C 100 % 1029,9 hPa 0,0 l/m S-SW 0,83 h 256 W/m 18,0 km/h (3 Bft)
06.12.2015 14:00 6,9 C 100 % 1029,8 hPa 0,0 l/m SW 1,00 h 191 W/m 10,8 km/h (2 Bft)
06.12.2015 15:00 7,2 C 98 % 1030,0 hPa 0,0 l/m W-SW 0,17 h 52 W/m 9,0 km/h (2 Bft)
06.12.2015 16:00 6,0 C 95 % 1030,4 hPa 0,0 l/m W-SW 0,00 h 8 W/m 2,5 km/h (1 Bft)
06.12.2015 17:00 4,4 C 95 % 1030,7 hPa 0,2 l/m W-SW 0,00 h 0 W/m 1,6 km/h (1 Bft)
06.12.2015 18:00 3,6 C 95 % 1031,4 hPa 0,0 l/m W-SW 0,00 h 0 W/m 1,5 km/h (1 Bft)
06.12.2015 19:00 3,7 C 96 % 1031,9 hPa 0,0 l/m N 0,00 h 0 W/m 2,0 km/h (1 Bft)
06.12.2015 20:00 3,2 C 97 % 1032,2 hPa 0,0 l/m N 0,00 h 0 W/m 0,0 km/h (0 Bft)
06.12.2015 21:00 2,5 C 97 % 1032,1 hPa 0,0 l/m W-SW 0,00 h 0 W/m 0,7 km/h (0 Bft)
06.12.2015 22:00 2,4 C 97 % 1032,7 hPa 0,0 l/m W-SW 0,00 h 0 W/m 1,9 km/h (1 Bft)
06.12.2015 23:00 2,8 C 98 % 1033,1 hPa 0,0 l/m N 0,00 h 0 W/m 0,0 km/h (0 Bft)
Min-Datum _ 04.12.15 30.11.15 30.11.15 - - - - 01.12.15
_ Min-Zeit 07:20 20:00 21:05 - - - - 23:05
Minimum _ -0,3 C 77 % 1021,8 hPa - - - - 0,0 km/h (0 Bft)
Max-Datum _ 30.11.15 06.12.15 04.12.15 01.12.15 - 30.11.15 30.11.15 01.12.15
_ Max-Zeit 14:00 04:30 20:45 10:00 - 13:55 13:55 01:55
Maximum _ 8,9 C 100 % 1035,9 hPa 0,4 l/m - 0,08 h 306 W/m 59,5 km/h
SW (7 Bft)
Durchschnitt _ 4,6 C 93 % 1029,4 hPa #1,6 l/m SW #3:50 h 62 W/m 13,0 km/h (3 Bft)